[[{"header":{"parameterUnit":"m.s-1","parameterCategory":1,"la1":30.2991,"la2":30.254,"lo1":-89.0895,"lo2":-89.0444,"dy":0.0017,"dx":0.0017,"nx":28,"ny":28,"refTime":"2025-11-19T03:00:00:Z","depth":0,"parameterNumber":2,"parameterNumberName":"U-component_of_WINDS"},"data":[0,0,0,0,0,0,0,0,0,0,0,0,0,0,0,0,0,0,0,0,0,0,0,0,0,0,0,0,0,0,0,0,0,0,0,0,0,0,0,0,0,0,0,0,0,0,0,0,0,0,0,0,0,0,0,0,0,0,-1.3151,-1.3151,0,-1.3147,-1.3147,-1.3147,-1.3119,-1.3118,-1.3117,-1.3117,-1.3113,-1.3114,-1.3114,0,0,0,0,0,0,0,0,0,0,0,0,0,-1.3136,-1.3137,-1.3151,-1.3151,-1.3151,-1.3147,-1.3147,-1.3147,-1.3119,-1.3118,-1.3117,-1.3116,-1.3113,-1.3114,-1.3114,0,0,0,0,0,0,0,0,0,0,0,0,0,-1.3138,-1.3137,-1.3151,-1.3136,-1.3135,-1.3147,-1.3147,-1.3147,-1.3119,-1.3118,-1.3117,-1.3116,-1.3113,-1.3114,-1.3114,-1.314,0,0,-1.3117,-1.3117,0,0,0,0,0,0,0,0,-1.3138,-1.3139,-1.3139,-1.3138,-1.3136,-1.3132,-1.314,-1.3145,-1.3119,-1.3125,-1.3117,-1.3115,-1.312,-1.3121,-1.3122,-1.314,-1.314,-1.3117,-1.3118,-1.3118,-1.3118,0,0,0,0,0,0,0,-1.3138,-1.3139,-1.3149,-1.3139,-1.3137,-1.3131,-1.313,-1.3141,-1.3129,-1.3124,-1.3122,-1.3122,-1.3119,-1.3121,-1.3122,-1.314,-1.3117,-1.3118,-1.3118,-1.3119,-1.3179,-1.318,0,0,0,0,0,0,-1.314,-1.3139,-1.315,-1.3149,-1.3135,-1.3132,-1.3131,-1.3134,-1.3128,-1.3126,-1.3123,-1.3121,-1.312,-1.3121,-1.3122,-1.3151,-1.3118,-1.3119,-1.3119,-1.3177,-1.3179,-1.318,0,0,0,0,0,0,-1.314,-1.3141,-1.315,-1.3144,-1.3144,-1.3133,-1.3137,-1.3135,-1.3137,-1.3127,-1.3125,-1.3127,-1.312,-1.312,-1.3136,-1.315,-1.3119,-1.312,-1.3176,-1.3178,-1.3179,-1.3209,0,0,0,0,0,0,-1.3139,-1.3141,-1.3151,-1.3144,-1.3145,-1.3164,-1.3138,-1.3136,-1.3138,-1.3135,-1.3131,-1.3129,-1.3119,-1.3135,-1.3136,-1.3151,-1.312,-1.3175,-1.3177,-1.3179,-1.3207,-1.3212,-1.3216,0,0,0,0,0,-1.3139,-1.3159,-1.3151,-1.3153,-1.3156,-1.3164,-1.3165,-1.3153,-1.3139,-1.3149,-1.3143,-1.3129,-1.3149,-1.3136,-1.3138,-1.3153,-1.3174,-1.3176,-1.3179,-1.3205,-1.3211,-1.3216,0,0,0,0,0,0,-1.3168,-1.3158,-1.3149,-1.3168,-1.3167,-1.316,-1.3171,-1.3159,-1.3163,-1.316,-1.3145,-1.3144,-1.3162,-1.3159,-1.3146,-1.3178,-1.3159,-1.3162,-1.3178,-1.3184,-1.3188,-1.3188,-1.3121,0,0,0,0,0,-1.3177,-1.3184,-1.3175,-1.3193,-1.3193,-1.3182,-1.3185,-1.3176,-1.3175,-1.3175,-1.317,-1.317,-1.3176,-1.318,-1.3185,-1.3207,-1.3205,-1.3218,-1.3223,-1.3227,-1.3229,-1.324,-1.3245,-1.3188,-1.3188,-1.3188,0,0,-1.3195,-1.319,-1.3196,-1.3199,-1.3197,-1.3205,-1.3182,-1.3192,-1.3197,-1.3176,-1.319,-1.3187,-1.3185,-1.3204,-1.3212,-1.3202,-1.3245,-1.323,-1.3233,-1.3233,-1.3243,-1.3248,-1.3253,-1.319,-1.3189,-1.3189,0,0,-1.3231,-1.3229,-1.3242,-1.3241,-1.3239,-1.3232,-1.3235,-1.323,-1.3227,-1.324,-1.3224,-1.3232,-1.3242,-1.3242,-1.3243,-1.328,-1.3267,-1.3283,-1.3305,-1.3316,-1.3321,-1.3325,-1.3337,-1.3342,-1.3285,-1.3285,-1.3285,0,-1.3253,-1.3264,-1.3251,-1.3262,-1.3263,-1.3245,-1.3259,-1.3258,-1.3258,-1.326,-1.3249,-1.3262,-1.326,-1.3278,-1.3288,-1.329,-1.3293,-1.3282,-1.3321,-1.3325,-1.3328,-1.334,-1.3345,-1.3287,-1.3287,-1.3287,-1.3286,0,-1.3291,-1.3299,-1.3311,-1.3311,-1.3314,-1.3326,-1.3316,-1.3321,-1.3312,-1.3306,-1.332,-1.3317,-1.3321,-1.3325,-1.3316,-1.3342,-1.3336,-1.3324,-1.3304,-1.3336,-1.3346,-1.3351,-1.329,-1.3289,-1.3288,-1.3288,0,0,-1.3344,-1.3337,-1.3342,-1.3341,-1.3338,-1.3344,-1.3356,-1.3359,-1.3363,-1.3365,-1.3374,-1.3384,-1.3372,-1.3374,-1.3365,-1.3375,-1.3404,-1.3361,-1.3361,-1.3368,-1.3431,-1.3439,-1.3444,-1.3396,-1.3397,-1.3397,-1.343,0,-1.3378,-1.3397,-1.3386,-1.3406,-1.3414,-1.3396,-1.3407,-1.3406,-1.3401,-1.3407,-1.3402,-1.3409,-1.3394,-1.3394,-1.3403,-1.3398,-1.3416,-1.3396,-1.3404,-1.3404,-1.3403,-1.345,-1.3459,-1.349,-1.3435,-1.3435,-1.3436,0,-1.342,-1.3422,-1.3443,-1.3438,-1.344,-1.345,-1.3452,-1.3458,-1.3457,-1.3453,-1.3455,-1.3444,-1.3455,-1.3438,-1.3453,-1.344,-1.3443,-1.3441,-1.3442,-1.3441,-1.3421,-1.3449,-1.35,-1.3504,-1.3442,-1.3442,-1.3441,0,-1.3455,-1.3463,-1.3477,-1.3477,-1.3472,-1.3479,-1.3477,-1.3475,-1.3478,-1.348,-1.3482,-1.3486,-1.3488,-1.3492,-1.3483,-1.3471,-1.3499,-1.3481,-1.3496,-1.3496,-1.3501,-1.3501,-1.3552,-1.3506,-1.3506,-1.3506,-1.3506,0,-1.3493,-1.3506,-1.3492,-1.35,-1.3515,-1.3503,-1.3518,-1.3514,-1.3513,-1.352,-1.3507,-1.3514,-1.3502,-1.3508,-1.3501,-1.3515,-1.3516,-1.3513,-1.3511,-1.3513,-1.3514,-1.3514,-1.3511,-1.3507,-1.3507,-1.3506,-1.3506,0,-1.3534,-1.3525,-1.3538,-1.3533,-1.3532,-1.3542,-1.3537,-1.3545,-1.354,-1.3549,-1.3551,-1.3543,-1.3549,-1.3541,-1.3547,-1.3542,-1.3561,-1.3556,-1.356,-1.3559,-1.3573,-1.3572,-1.3625,-1.3631,-1.3583,-1.3583,-1.3584,0,-1.3558,-1.3567,-1.3563,-1.3566,-1.3565,-1.3572,-1.3574,-1.3563,-1.3567,-1.3567,-1.3574,-1.358,-1.3583,-1.3595,-1.359,-1.3595,-1.3589,-1.3608,-1.359,-1.3592,-1.3588,-1.3587,-1.3587,-1.3611,-1.3611,-1.3612,-1.3612,0,-1.3601,-1.3596,-1.3601,-1.3603,-1.3607,-1.3609,-1.361,-1.3614,-1.3602,-1.3607,-1.3614,-1.3616,-1.3623,-1.3628,-1.3632,-1.363,-1.3619,-1.3618,-1.3622,-1.3624,-1.3625,-1.3623,-1.3569,-1.3617,-1.3616,-1.3616,-1.3616,-1.3615,-1.3634,-1.3641,-1.3639,-1.3644,-1.3643,-1.3645,-1.3651,-1.3647,-1.3652,-1.3655,-1.3649,-1.3657,-1.3656,-1.3659,-1.3659,-1.3666,-1.3658,-1.3663,-1.3664,-1.3665,-1.3667,-1.3626,-1.3667,-1.3666,-1.3666,-1.3666,-1.3666,0,-1.3675,-1.3673,-1.3678,-1.3679,-1.3683,-1.3673,-1.3673,-1.3678,-1.3685,-1.3685,-1.3688,-1.3696,-1.3701,-1.3697,-1.3701,-1.3707,-1.3703,-1.3709,-1.3708,-1.3707,-1.3674,-1.367,-1.3713,-1.3713,-1.3713,-1.3713,-1.3713,-1.3713,-1.3697,-1.3709,-1.3704,-1.3716,-1.3714,-1.3721,-1.3722,-1.3723,-1.3723,-1.3732,-1.3736,-1.3733,-1.3731,-1.3736,-1.374,-1.3739,-1.3741,-1.3749,-1.3745,-1.3714,-1.371,-1.3705,-1.3701,-1.3749,-1.375,-1.3777,-1.3778,-1.3778]},{"header":{"parameterUnit":"m.s-1","parameterCategory":1,"la1":30.2991,"la2":30.254,"lo1":-89.0895,"lo2":-89.0444,"dy":0.0017,"dx":0.0017,"nx":28,"ny":28,"refTime":"2025-11-19T03:00:00:Z","depth":0,"parameterNumber":3,"parameterNumberName":"V-component_of_WINDS"},"data":[0,0,0,0,0,0,0,0,0,0,0,0,0,0,0,0,0,0,0,0,0,0,0,0,0,0,0,0,0,0,0,0,0,0,0,0,0,0,0,0,0,0,0,0,0,0,0,0,0,0,0,0,0,0,0,0,0,0,3.1509,3.1508,0,3.147,3.1469,3.1469,3.15,3.1501,3.1503,3.1504,3.1459,3.1457,3.1454,0,0,0,0,0,0,0,0,0,0,0,0,0,3.1607,3.1605,3.1509,3.1508,3.1508,3.147,3.1469,3.1469,3.15,3.1501,3.1503,3.1505,3.146,3.1457,3.1454,0,0,0,0,0,0,0,0,0,0,0,0,0,3.1566,3.1605,3.1509,3.1519,3.1519,3.147,3.1469,3.1469,3.1499,3.1502,3.1504,3.1505,3.1461,3.1457,3.1454,3.1391,0,0,3.1442,3.1441,0,0,0,0,0,0,0,0,3.1568,3.1562,3.1518,3.1518,3.1519,3.1492,3.1488,3.1442,3.1499,3.1507,3.1504,3.1506,3.1468,3.1464,3.1452,3.1389,3.1387,3.1442,3.144,3.1438,3.1437,0,0,0,0,0,0,0,3.1571,3.1564,3.1493,3.1517,3.1518,3.1524,3.1521,3.1479,3.1476,3.1506,3.1509,3.1504,3.1469,3.1455,3.1451,3.1386,3.1442,3.1439,3.1437,3.1435,3.1272,3.127,0,0,0,0,0,0,3.1574,3.1566,3.1494,3.1492,3.1549,3.1521,3.1517,3.1498,3.1477,3.1476,3.1502,3.1505,3.1461,3.1455,3.145,3.1377,3.1438,3.1435,3.1433,3.1275,3.1272,3.127,0,0,0,0,0,0,3.1576,3.1567,3.1496,3.153,3.1521,3.1517,3.1496,3.1496,3.1484,3.1474,3.1473,3.1489,3.1462,3.1455,3.1406,3.1376,3.1433,3.143,3.1277,3.1274,3.1271,3.1229,0,0,0,0,0,0,3.1578,3.1567,3.1544,3.1529,3.1519,3.1454,3.1494,3.1494,3.1478,3.1482,3.1462,3.146,3.1463,3.1412,3.1403,3.1372,3.1427,3.128,3.1276,3.1272,3.1233,3.1225,3.1218,0,0,0,0,0,3.1582,3.1532,3.1542,3.1533,3.149,3.1452,3.1446,3.1452,3.1475,3.1451,3.1446,3.1461,3.1381,3.1406,3.1397,3.1364,3.1282,3.1277,3.1272,3.1237,3.1227,3.1218,0,0,0,0,0,0,3.154,3.153,3.1541,3.1486,3.147,3.1457,3.1427,3.144,3.1416,3.1421,3.1427,3.1422,3.1372,3.1363,3.1392,3.1304,3.1335,3.1328,3.1311,3.1302,3.1294,3.1298,3.1424,0,0,0,0,0,3.1525,3.1496,3.1488,3.1439,3.1431,3.1431,3.1414,3.142,3.1403,3.1396,3.1387,3.1369,3.134,3.132,3.1292,3.1233,3.123,3.1206,3.1198,3.1192,3.1186,3.1156,3.1146,3.1254,3.1254,3.1254,0,0,3.1492,3.1483,3.1464,3.1431,3.1419,3.1389,3.1424,3.139,3.1367,3.139,3.1345,3.1338,3.1318,3.1264,3.124,3.1255,3.1155,3.1186,3.1181,3.1178,3.115,3.114,3.113,3.1251,3.1251,3.1252,0,0,3.1418,3.1407,3.1367,3.1356,3.1339,3.134,3.133,3.1316,3.1313,3.1268,3.1286,3.1259,3.1208,3.1194,3.118,3.1105,3.1118,3.1095,3.1055,3.1026,3.1017,3.101,3.0984,3.0975,3.1089,3.1089,3.1089,0,3.1379,3.1335,3.1344,3.131,3.1296,3.1318,3.1278,3.1265,3.1239,3.1229,3.1247,3.1186,3.1174,3.1119,3.1101,3.1088,3.1078,3.1097,3.1018,3.1011,3.1004,3.098,3.097,3.1086,3.1087,3.1087,3.1087,0,3.1289,3.1258,3.1228,3.1206,3.1188,3.115,3.1154,3.1135,3.1143,3.1142,3.1097,3.1084,3.1056,3.1043,3.1049,3.0989,3.1,3.1017,3.1049,3.0991,3.0968,3.0959,3.1083,3.1084,3.1084,3.1085,0,0,3.1185,3.1172,3.116,3.1152,3.1137,3.1113,3.1077,3.1052,3.1036,3.1017,3.0988,3.0947,3.0965,3.0949,3.0954,3.0929,3.0872,3.095,3.095,3.0937,3.0807,3.0795,3.0784,3.0882,3.088,3.0878,3.081,0,3.1111,3.1051,3.106,3.1002,3.0975,3.0997,3.0966,3.0953,3.0952,3.0928,3.0925,3.0897,3.0921,3.0913,3.0888,3.0884,3.0846,3.0889,3.0854,3.0853,3.086,3.0772,3.0757,3.0693,3.0801,3.0799,3.0798,0,3.1017,3.0999,3.0939,3.0931,3.092,3.0892,3.0871,3.0848,3.0834,3.0835,3.082,3.0831,3.0795,3.0828,3.0779,3.0809,3.0795,3.0791,3.0789,3.0786,3.0822,3.0768,3.0672,3.0663,3.0784,3.0785,3.0786,0,3.095,3.091,3.087,3.0862,3.0851,3.0831,3.0825,3.0814,3.0799,3.078,3.0771,3.0748,3.0735,3.0716,3.0721,3.0744,3.0672,3.0704,3.0672,3.0672,3.0656,3.0657,3.0558,3.0645,3.0646,3.0646,3.0646,0,3.0867,3.0829,3.084,3.0815,3.0775,3.0786,3.0745,3.0742,3.0732,3.0707,3.0723,3.0699,3.0707,3.0683,3.0686,3.0647,3.064,3.064,3.0641,3.0639,3.0639,3.063,3.0635,3.0643,3.0644,3.0644,3.0645,0,3.0784,3.079,3.0748,3.0743,3.074,3.0711,3.0706,3.0683,3.0684,3.0652,3.0645,3.0646,3.0619,3.0622,3.0591,3.0594,3.0545,3.0551,3.0551,3.0552,3.0521,3.0524,3.0413,3.04,3.0495,3.0494,3.0493,0,3.0732,3.0704,3.0697,3.0683,3.0677,3.0652,3.0639,3.0649,3.0634,3.0618,3.0597,3.0572,3.0553,3.0509,3.0507,3.0484,3.049,3.0453,3.0487,3.0486,3.0491,3.0494,3.0492,3.0446,3.0445,3.0444,3.0444,0,3.0638,3.0643,3.0624,3.0606,3.059,3.0575,3.0562,3.0549,3.0558,3.054,3.0515,3.05,3.0471,3.0447,3.0426,3.0419,3.0433,3.0434,3.0425,3.0423,3.0424,3.0425,3.0534,3.0436,3.0437,3.0437,3.0438,3.0438,3.057,3.0548,3.054,3.0519,3.0511,3.0499,3.0478,3.0478,3.0458,3.0436,3.0443,3.0414,3.0404,3.0378,3.0369,3.0347,3.036,3.0347,3.0344,3.0341,3.0338,3.0428,3.0342,3.0343,3.0343,3.0343,3.0343,0,3.0479,3.0476,3.0456,3.044,3.0423,3.044,3.0427,3.0412,3.0387,3.0377,3.0359,3.0331,3.0308,3.0305,3.0283,3.0266,3.0272,3.026,3.0262,3.0261,3.0327,3.0337,3.0256,3.0256,3.0256,3.0256,3.0256,3.0256,3.0429,3.0394,3.0398,3.0359,3.0356,3.033,3.0322,3.0312,3.0304,3.0273,3.0255,3.0254,3.0247,3.0225,3.0206,3.0205,3.0197,3.0183,3.0185,3.0247,3.0255,3.0264,3.0274,3.0181,3.0181,3.0121,3.0121,3.012]}]]